Location: Newark
(21.1200°N, 73.4000°E)
Time: 02:53:22
(UTC+00:00)

S-56A Canister/Altair - Visible Passes

Search period start: 20 January 2020 00:00
Search period end: 30 January 2020 00:00
Orbit: 634 x 2498 km, 38.9° (Epoch: 19 January)

Date Brightness Start Highest point End Pass type
(mag) Time Alt. Az. Time Alt. Az. Time Alt. Az.
20 Jan 8.8 00:18:11 32° W 00:20:58 48° SW 00:30:03 10° SE visible
20 Jan 9.5 13:17:22 10° SSW 13:24:29 28° SE 13:29:33 11° E visible
20 Jan 8.9 15:21:57 10° WSW 15:27:00 43° W 15:27:00 43° W visible
20 Jan 8.3 23:47:33 53° SW 23:48:08 55° SW 23:56:44 10° SE visible
21 Jan 7.8 14:48:32 10° WSW 14:56:10 76° NW 14:56:22 75° NNW visible
21 Jan 8.7 23:16:55 50° SSE 23:16:55 50° SSE 23:23:26 10° SE visible
22 Jan 10.2 01:16:34 10° WSW 01:20:26 14° SW 01:25:02 10° S visible
22 Jan 8.0 14:15:06 10° SW 14:23:28 90° W 14:25:43 42° NE visible
22 Jan 9.7 22:46:18 29° SE 22:46:18 29° SE 22:50:09 10° SE visible
23 Jan 9.9 00:43:45 11° WSW 00:47:26 16° SW 00:52:28 10° S visible
23 Jan 8.3 13:41:38 10° SW 13:50:43 78° SE 13:55:02 21° ENE visible
23 Jan 10.0 15:49:40 10° W 15:52:29 19° WNW 15:52:29 19° WNW visible
23 Jan 10.5 22:15:41 15° SE 22:15:41 15° SE 22:16:54 10° SE visible
24 Jan 9.7 00:13:08 17° SW 00:14:30 18° SW 00:19:48 10° S visible
24 Jan 8.6 13:08:09 10° SW 13:17:53 67° SE 13:24:11 10° ENE visible
24 Jan 9.3 15:15:55 10° W 15:21:48 30° NW 15:21:48 30° NW visible
24 Jan 9.7 23:42:30 20° SSW 23:42:30 20° SSW 23:47:05 10° S visible
25 Jan 8.9 14:42:07 10° W 14:49:24 37° NNW 14:51:06 31° N visible
25 Jan 10.1 23:11:53 17° S 23:11:53 17° S 23:14:20 10° SSE visible
26 Jan 9.0 14:08:17 10° WSW 14:16:38 45° NNW 14:20:22 22° NNE visible
26 Jan 10.6 22:41:15 11° SSE 22:41:15 11° SSE 22:41:33 10° SSE visible
27 Jan 9.0 13:34:27 10° WSW 13:43:49 54° NW 13:49:37 12° NE visible
27 Jan 10.2 15:44:54 10° NW 15:47:03 14° NW 15:47:03 14° NW visible
28 Jan 9.8 15:10:50 10° WNW 15:15:51 19° NNW 15:16:17 19° NNW visible
29 Jan 9.6 14:36:45 10° WNW 14:42:57 23° NNW 14:45:29 18° N visible
